TimeEST,TemperatureF,Dew PointF,Humidity,Sea Level PressureIn,VisibilityMPH,Wind Direction,Wind SpeedMPH,Gust SpeedMPH,PrecipitationIn,Events,Conditions,WindDirDegrees,DateUTC
12:54 AM,33.1,12.9,43,30.38,10.0,Calm,Calm,-,N/A,,Mostly Cloudy,0,2013-12-26 05:54:00
1:54 AM,32.0,16.0,52,30.37,10.0,NW,3.5,-,N/A,,Partly Cloudy,310,2013-12-26 06:54:00
2:54 AM,33.1,21.0,61,30.35,10.0,Calm,Calm,-,N/A,,Clear,0,2013-12-26 07:54:00
3:54 AM,32.0,21.9,66,30.35,10.0,Calm,Calm,-,N/A,,Partly Cloudy,0,2013-12-26 08:54:00
4:54 AM,30.9,23.0,72,30.34,10.0,Calm,Calm,-,N/A,,Clear,0,2013-12-26 09:54:00
5:54 AM,30.9,23.0,72,30.33,10.0,Calm,Calm,-,N/A,,Scattered Clouds,0,2013-12-26 10:54:00
6:54 AM,30.9,23.0,72,30.33,10.0,Calm,Calm,-,N/A,,Clear,0,2013-12-26 11:54:00
7:54 AM,32.0,23.0,69,30.35,10.0,Calm,Calm,-,N/A,,Clear,0,2013-12-26 12:54:00
8:54 AM,33.1,19.0,56,30.35,10.0,Calm,Calm,-,N/A,,Clear,0,2013-12-26 13:54:00
9:54 AM,36.0,18.0,48,30.37,10.0,WSW,3.5,-,N/A,,Clear,240,2013-12-26 14:54:00
10:54 AM,39.9,21.0,47,30.36,10.0,Calm,Calm,-,N/A,,Clear,0,2013-12-26 15:54:00
11:54 AM,45.0,21.9,40,30.33,10.0,Calm,Calm,-,N/A,,Clear,0,2013-12-26 16:54:00
12:54 PM,51.1,24.1,35,30.30,10.0,Calm,Calm,-,N/A,,Clear,0,2013-12-26 17:54:00
1:54 PM,53.1,24.1,32,30.27,10.0,Variable,4.6,-,N/A,,Clear,0,2013-12-26 18:54:00
2:54 PM,55.0,24.1,30,30.25,10.0,Calm,Calm,-,N/A,,Clear,0,2013-12-26 19:54:00
3:54 PM,55.9,24.1,29,30.25,10.0,Calm,Calm,-,N/A,,Clear,0,2013-12-26 20:54:00
4:54 PM,54.0,26.1,34,30.26,10.0,Calm,Calm,-,N/A,,Clear,0,2013-12-26 21:54:00
5:54 PM,51.1,26.1,38,30.27,10.0,Calm,Calm,-,N/A,,Clear,0,2013-12-26 22:54:00
6:54 PM,48.9,30.9,50,30.30,10.0,Calm,Calm,-,N/A,,Clear,0,2013-12-26 23:54:00
7:54 PM,46.0,30.9,56,30.31,10.0,Calm,Calm,-,N/A,,Clear,0,2013-12-27 00:54:00
8:54 PM,43.0,32.0,65,30.32,10.0,Calm,Calm,-,N/A,,Clear,0,2013-12-27 01:54:00
9:54 PM,42.1,28.0,58,30.33,10.0,NNE,4.6,-,N/A,,Clear,20,2013-12-27 02:54:00
10:54 PM,41.0,25.0,53,30.35,10.0,NNE,4.6,-,N/A,,Clear,20,2013-12-27 03:54:00
11:54 PM,39.9,24.1,53,30.34,10.0,North,4.6,-,N/A,,Clear,360,2013-12-27 04:54:00